<?xml version="1.0"?>
<gpx xmlns="http://www.topografix.com/GPX/1/1" xmlns:xsi="http://www.w3.org/2001/XMLSchema-instance" version="1.1" creator="GPX RubyGem 1.0.0 -- http://dougfales.github.io/gpx/" xsi:schemaLocation="http://www.topografix.com/GPX/1/1 http://www.topografix.com/GPX/1/1/gpx.xsd">
  <metadata>
    <name/>
    <time>2026-05-09T16:20:13+00:00</time>
    <bound minlat="90.0" minlon="180.0" maxlat="-90.0" maxlon="-180.0"/>
  </metadata>
  <trk>
    <name/>
    <trkseg>
      <trkpt lat="43.990774" lon="3.504144">
        <time>1970-01-01T00:00:00+00:00</time>
        <ele>456.0</ele>
      </trkpt>
      <trkpt lat="43.990814" lon="3.50413">
        <time>1970-01-01T00:00:00+00:00</time>
        <ele>456.0</ele>
      </trkpt>
      <trkpt lat="43.990935" lon="3.504028">
        <time>1970-01-01T00:00:00+00:00</time>
        <ele>455.0</ele>
      </trkpt>
      <trkpt lat="43.991049" lon="3.503932">
        <time>1970-01-01T00:00:00+00:00</time>
        <ele>455.0</ele>
      </trkpt>
      <trkpt lat="43.991152" lon="3.503767">
        <time>1970-01-01T00:00:00+00:00</time>
        <ele>455.0</ele>
      </trkpt>
      <trkpt lat="43.991156" lon="3.503638">
        <time>1970-01-01T00:00:00+00:00</time>
        <ele>454.0</ele>
      </trkpt>
      <trkpt lat="43.991177" lon="3.503606">
        <time>1970-01-01T00:00:00+00:00</time>
        <ele>454.0</ele>
      </trkpt>
      <trkpt lat="43.991308" lon="3.503594">
        <time>1970-01-01T00:00:00+00:00</time>
        <ele>455.0</ele>
      </trkpt>
      <trkpt lat="43.991536" lon="3.503629">
        <time>1970-01-01T00:00:00+00:00</time>
        <ele>458.0</ele>
      </trkpt>
      <trkpt lat="43.991611" lon="3.503663">
        <time>1970-01-01T00:00:00+00:00</time>
        <ele>459.0</ele>
      </trkpt>
      <trkpt lat="43.991686" lon="3.503669">
        <time>1970-01-01T00:00:00+00:00</time>
        <ele>460.0</ele>
      </trkpt>
      <trkpt lat="43.992174" lon="3.503406">
        <time>1970-01-01T00:00:00+00:00</time>
        <ele>463.0</ele>
      </trkpt>
      <trkpt lat="43.992446" lon="3.503115">
        <time>1970-01-01T00:00:00+00:00</time>
        <ele>463.0</ele>
      </trkpt>
      <trkpt lat="43.992554" lon="3.502928">
        <time>1970-01-01T00:00:00+00:00</time>
        <ele>462.0</ele>
      </trkpt>
      <trkpt lat="43.992715" lon="3.502869">
        <time>1970-01-01T00:00:00+00:00</time>
        <ele>464.0</ele>
      </trkpt>
      <trkpt lat="43.992689" lon="3.50278">
        <time>1970-01-01T00:00:00+00:00</time>
        <ele>463.0</ele>
      </trkpt>
      <trkpt lat="43.992737" lon="3.502684">
        <time>1970-01-01T00:00:00+00:00</time>
        <ele>463.0</ele>
      </trkpt>
      <trkpt lat="43.992827" lon="3.502614">
        <time>1970-01-01T00:00:00+00:00</time>
        <ele>464.0</ele>
      </trkpt>
      <trkpt lat="43.992873" lon="3.502529">
        <time>1970-01-01T00:00:00+00:00</time>
        <ele>465.0</ele>
      </trkpt>
      <trkpt lat="43.992995" lon="3.502436">
        <time>1970-01-01T00:00:00+00:00</time>
        <ele>466.0</ele>
      </trkpt>
      <trkpt lat="43.99306" lon="3.502437">
        <time>1970-01-01T00:00:00+00:00</time>
        <ele>467.0</ele>
      </trkpt>
      <trkpt lat="43.993092" lon="3.502464">
        <time>1970-01-01T00:00:00+00:00</time>
        <ele>467.0</ele>
      </trkpt>
      <trkpt lat="43.993265" lon="3.502382">
        <time>1970-01-01T00:00:00+00:00</time>
        <ele>469.0</ele>
      </trkpt>
      <trkpt lat="43.993562" lon="3.50231">
        <time>1970-01-01T00:00:00+00:00</time>
        <ele>470.0</ele>
      </trkpt>
      <trkpt lat="43.993649" lon="3.502156">
        <time>1970-01-01T00:00:00+00:00</time>
        <ele>473.0</ele>
      </trkpt>
      <trkpt lat="43.993746" lon="3.502036">
        <time>1970-01-01T00:00:00+00:00</time>
        <ele>474.0</ele>
      </trkpt>
      <trkpt lat="43.993809" lon="3.502036">
        <time>1970-01-01T00:00:00+00:00</time>
        <ele>475.0</ele>
      </trkpt>
      <trkpt lat="43.993861" lon="3.502068">
        <time>1970-01-01T00:00:00+00:00</time>
        <ele>475.0</ele>
      </trkpt>
      <trkpt lat="43.9939" lon="3.502146">
        <time>1970-01-01T00:00:00+00:00</time>
        <ele>475.0</ele>
      </trkpt>
      <trkpt lat="43.99393" lon="3.501977">
        <time>1970-01-01T00:00:00+00:00</time>
        <ele>476.0</ele>
      </trkpt>
      <trkpt lat="43.993921" lon="3.501569">
        <time>1970-01-01T00:00:00+00:00</time>
        <ele>474.0</ele>
      </trkpt>
      <trkpt lat="43.993997" lon="3.501535">
        <time>1970-01-01T00:00:00+00:00</time>
        <ele>475.0</ele>
      </trkpt>
      <trkpt lat="43.994293" lon="3.50148">
        <time>1970-01-01T00:00:00+00:00</time>
        <ele>477.0</ele>
      </trkpt>
      <trkpt lat="43.994641" lon="3.501296">
        <time>1970-01-01T00:00:00+00:00</time>
        <ele>481.0</ele>
      </trkpt>
      <trkpt lat="43.994836" lon="3.501115">
        <time>1970-01-01T00:00:00+00:00</time>
        <ele>481.0</ele>
      </trkpt>
      <trkpt lat="43.994969" lon="3.500963">
        <time>1970-01-01T00:00:00+00:00</time>
        <ele>481.0</ele>
      </trkpt>
      <trkpt lat="43.995265" lon="3.501026">
        <time>1970-01-01T00:00:00+00:00</time>
        <ele>488.0</ele>
      </trkpt>
      <trkpt lat="43.995455" lon="3.501041">
        <time>1970-01-01T00:00:00+00:00</time>
        <ele>490.0</ele>
      </trkpt>
      <trkpt lat="43.995667" lon="3.500995">
        <time>1970-01-01T00:00:00+00:00</time>
        <ele>491.0</ele>
      </trkpt>
      <trkpt lat="43.995823" lon="3.500984">
        <time>1970-01-01T00:00:00+00:00</time>
        <ele>494.0</ele>
      </trkpt>
      <trkpt lat="43.996159" lon="3.501036">
        <time>1970-01-01T00:00:00+00:00</time>
        <ele>499.0</ele>
      </trkpt>
      <trkpt lat="43.996111" lon="3.501082">
        <time>1970-01-01T00:00:00+00:00</time>
        <ele>498.0</ele>
      </trkpt>
      <trkpt lat="43.996023" lon="3.501061">
        <time>1970-01-01T00:00:00+00:00</time>
        <ele>497.0</ele>
      </trkpt>
      <trkpt lat="43.995987" lon="3.501071">
        <time>1970-01-01T00:00:00+00:00</time>
        <ele>497.0</ele>
      </trkpt>
      <trkpt lat="43.996" lon="3.501105">
        <time>1970-01-01T00:00:00+00:00</time>
        <ele>497.0</ele>
      </trkpt>
      <trkpt lat="43.996241" lon="3.50121">
        <time>1970-01-01T00:00:00+00:00</time>
        <ele>501.0</ele>
      </trkpt>
      <trkpt lat="43.996567" lon="3.501448">
        <time>1970-01-01T00:00:00+00:00</time>
        <ele>507.0</ele>
      </trkpt>
      <trkpt lat="43.996776" lon="3.501509">
        <time>1970-01-01T00:00:00+00:00</time>
        <ele>512.0</ele>
      </trkpt>
      <trkpt lat="43.996857" lon="3.501456">
        <time>1970-01-01T00:00:00+00:00</time>
        <ele>512.0</ele>
      </trkpt>
      <trkpt lat="43.996916" lon="3.501454">
        <time>1970-01-01T00:00:00+00:00</time>
        <ele>513.0</ele>
      </trkpt>
      <trkpt lat="43.996989" lon="3.501494">
        <time>1970-01-01T00:00:00+00:00</time>
        <ele>514.0</ele>
      </trkpt>
      <trkpt lat="43.997147" lon="3.501458">
        <time>1970-01-01T00:00:00+00:00</time>
        <ele>516.0</ele>
      </trkpt>
      <trkpt lat="43.997355" lon="3.501361">
        <time>1970-01-01T00:00:00+00:00</time>
        <ele>519.0</ele>
      </trkpt>
      <trkpt lat="43.997478" lon="3.501357">
        <time>1970-01-01T00:00:00+00:00</time>
        <ele>522.0</ele>
      </trkpt>
      <trkpt lat="43.997687" lon="3.501315">
        <time>1970-01-01T00:00:00+00:00</time>
        <ele>524.0</ele>
      </trkpt>
      <trkpt lat="43.997907" lon="3.5012">
        <time>1970-01-01T00:00:00+00:00</time>
        <ele>527.0</ele>
      </trkpt>
      <trkpt lat="43.998228" lon="3.500923">
        <time>1970-01-01T00:00:00+00:00</time>
        <ele>530.0</ele>
      </trkpt>
      <trkpt lat="43.998388" lon="3.500485">
        <time>1970-01-01T00:00:00+00:00</time>
        <ele>533.0</ele>
      </trkpt>
      <trkpt lat="43.998436" lon="3.50054">
        <time>1970-01-01T00:00:00+00:00</time>
        <ele>535.0</ele>
      </trkpt>
      <trkpt lat="43.998486" lon="3.500693">
        <time>1970-01-01T00:00:00+00:00</time>
        <ele>540.0</ele>
      </trkpt>
      <trkpt lat="43.998524" lon="3.500699">
        <time>1970-01-01T00:00:00+00:00</time>
        <ele>543.0</ele>
      </trkpt>
      <trkpt lat="43.998612" lon="3.500575">
        <time>1970-01-01T00:00:00+00:00</time>
        <ele>545.0</ele>
      </trkpt>
      <trkpt lat="43.998776" lon="3.500455">
        <time>1970-01-01T00:00:00+00:00</time>
        <ele>550.0</ele>
      </trkpt>
      <trkpt lat="43.998872" lon="3.50045">
        <time>1970-01-01T00:00:00+00:00</time>
        <ele>553.0</ele>
      </trkpt>
      <trkpt lat="43.998912" lon="3.500372">
        <time>1970-01-01T00:00:00+00:00</time>
        <ele>552.0</ele>
      </trkpt>
      <trkpt lat="43.998918" lon="3.500101">
        <time>1970-01-01T00:00:00+00:00</time>
        <ele>547.0</ele>
      </trkpt>
      <trkpt lat="43.998966" lon="3.499985">
        <time>1970-01-01T00:00:00+00:00</time>
        <ele>549.0</ele>
      </trkpt>
      <trkpt lat="43.999136" lon="3.499949">
        <time>1970-01-01T00:00:00+00:00</time>
        <ele>557.0</ele>
      </trkpt>
      <trkpt lat="43.999193" lon="3.499964">
        <time>1970-01-01T00:00:00+00:00</time>
        <ele>560.0</ele>
      </trkpt>
      <trkpt lat="43.999223" lon="3.499915">
        <time>1970-01-01T00:00:00+00:00</time>
        <ele>562.0</ele>
      </trkpt>
      <trkpt lat="43.999233" lon="3.499864">
        <time>1970-01-01T00:00:00+00:00</time>
        <ele>562.0</ele>
      </trkpt>
      <trkpt lat="43.999376" lon="3.499776">
        <time>1970-01-01T00:00:00+00:00</time>
        <ele>569.0</ele>
      </trkpt>
      <trkpt lat="43.999454" lon="3.499822">
        <time>1970-01-01T00:00:00+00:00</time>
        <ele>574.0</ele>
      </trkpt>
      <trkpt lat="43.999608" lon="3.49981">
        <time>1970-01-01T00:00:00+00:00</time>
        <ele>582.0</ele>
      </trkpt>
      <trkpt lat="43.999884" lon="3.499717">
        <time>1970-01-01T00:00:00+00:00</time>
        <ele>590.0</ele>
      </trkpt>
      <trkpt lat="44.000067" lon="3.499717">
        <time>1970-01-01T00:00:00+00:00</time>
        <ele>597.0</ele>
      </trkpt>
      <trkpt lat="44.000307" lon="3.499476">
        <time>1970-01-01T00:00:00+00:00</time>
        <ele>594.0</ele>
      </trkpt>
      <trkpt lat="44.000438" lon="3.499312">
        <time>1970-01-01T00:00:00+00:00</time>
        <ele>594.0</ele>
      </trkpt>
      <trkpt lat="44.000495" lon="3.499208">
        <time>1970-01-01T00:00:00+00:00</time>
        <ele>592.0</ele>
      </trkpt>
      <trkpt lat="44.000571" lon="3.499177">
        <time>1970-01-01T00:00:00+00:00</time>
        <ele>596.0</ele>
      </trkpt>
      <trkpt lat="44.000629" lon="3.49907">
        <time>1970-01-01T00:00:00+00:00</time>
        <ele>598.0</ele>
      </trkpt>
      <trkpt lat="44.000995" lon="3.498767">
        <time>1970-01-01T00:00:00+00:00</time>
        <ele>611.0</ele>
      </trkpt>
      <trkpt lat="44.001068" lon="3.498898">
        <time>1970-01-01T00:00:00+00:00</time>
        <ele>617.0</ele>
      </trkpt>
      <trkpt lat="44.001104" lon="3.499038">
        <time>1970-01-01T00:00:00+00:00</time>
        <ele>622.0</ele>
      </trkpt>
      <trkpt lat="44.001274" lon="3.499027">
        <time>1970-01-01T00:00:00+00:00</time>
        <ele>630.0</ele>
      </trkpt>
      <trkpt lat="44.00135" lon="3.498948">
        <time>1970-01-01T00:00:00+00:00</time>
        <ele>631.0</ele>
      </trkpt>
      <trkpt lat="44.001405" lon="3.498931">
        <time>1970-01-01T00:00:00+00:00</time>
        <ele>632.0</ele>
      </trkpt>
      <trkpt lat="44.001485" lon="3.498972">
        <time>1970-01-01T00:00:00+00:00</time>
        <ele>636.0</ele>
      </trkpt>
      <trkpt lat="44.001763" lon="3.498919">
        <time>1970-01-01T00:00:00+00:00</time>
        <ele>644.0</ele>
      </trkpt>
      <trkpt lat="44.001841" lon="3.498947">
        <time>1970-01-01T00:00:00+00:00</time>
        <ele>648.0</ele>
      </trkpt>
      <trkpt lat="44.001998" lon="3.498899">
        <time>1970-01-01T00:00:00+00:00</time>
        <ele>652.0</ele>
      </trkpt>
      <trkpt lat="44.002214" lon="3.498911">
        <time>1970-01-01T00:00:00+00:00</time>
        <ele>661.0</ele>
      </trkpt>
      <trkpt lat="44.002446" lon="3.498883">
        <time>1970-01-01T00:00:00+00:00</time>
        <ele>670.0</ele>
      </trkpt>
      <trkpt lat="44.002642" lon="3.498643">
        <time>1970-01-01T00:00:00+00:00</time>
        <ele>672.0</ele>
      </trkpt>
      <trkpt lat="44.002701" lon="3.49854">
        <time>1970-01-01T00:00:00+00:00</time>
        <ele>672.0</ele>
      </trkpt>
      <trkpt lat="44.002808" lon="3.498474">
        <time>1970-01-01T00:00:00+00:00</time>
        <ele>674.0</ele>
      </trkpt>
      <trkpt lat="44.003279" lon="3.498545">
        <time>1970-01-01T00:00:00+00:00</time>
        <ele>690.0</ele>
      </trkpt>
      <trkpt lat="44.003533" lon="3.498534">
        <time>1970-01-01T00:00:00+00:00</time>
        <ele>698.0</ele>
      </trkpt>
      <trkpt lat="44.003587" lon="3.498458">
        <time>1970-01-01T00:00:00+00:00</time>
        <ele>697.0</ele>
      </trkpt>
      <trkpt lat="44.003793" lon="3.498395">
        <time>1970-01-01T00:00:00+00:00</time>
        <ele>702.0</ele>
      </trkpt>
      <trkpt lat="44.003847" lon="3.49846">
        <time>1970-01-01T00:00:00+00:00</time>
        <ele>705.0</ele>
      </trkpt>
      <trkpt lat="44.003987" lon="3.498469">
        <time>1970-01-01T00:00:00+00:00</time>
        <ele>710.0</ele>
      </trkpt>
      <trkpt lat="44.004155" lon="3.498445">
        <time>1970-01-01T00:00:00+00:00</time>
        <ele>715.0</ele>
      </trkpt>
      <trkpt lat="44.004375" lon="3.498527">
        <time>1970-01-01T00:00:00+00:00</time>
        <ele>725.0</ele>
      </trkpt>
      <trkpt lat="44.00451" lon="3.498526">
        <time>1970-01-01T00:00:00+00:00</time>
        <ele>730.0</ele>
      </trkpt>
      <trkpt lat="44.004619" lon="3.498454">
        <time>1970-01-01T00:00:00+00:00</time>
        <ele>732.0</ele>
      </trkpt>
      <trkpt lat="44.004694" lon="3.49846">
        <time>1970-01-01T00:00:00+00:00</time>
        <ele>736.0</ele>
      </trkpt>
      <trkpt lat="44.004765" lon="3.498564">
        <time>1970-01-01T00:00:00+00:00</time>
        <ele>743.0</ele>
      </trkpt>
      <trkpt lat="44.004817" lon="3.498544">
        <time>1970-01-01T00:00:00+00:00</time>
        <ele>744.0</ele>
      </trkpt>
      <trkpt lat="44.004897" lon="3.498473">
        <time>1970-01-01T00:00:00+00:00</time>
        <ele>744.0</ele>
      </trkpt>
      <trkpt lat="44.004933" lon="3.498466">
        <time>1970-01-01T00:00:00+00:00</time>
        <ele>745.0</ele>
      </trkpt>
      <trkpt lat="44.004986" lon="3.498397">
        <time>1970-01-01T00:00:00+00:00</time>
        <ele>744.0</ele>
      </trkpt>
      <trkpt lat="44.00529" lon="3.49826">
        <time>1970-01-01T00:00:00+00:00</time>
        <ele>752.0</ele>
      </trkpt>
      <trkpt lat="44.005438" lon="3.498135">
        <time>1970-01-01T00:00:00+00:00</time>
        <ele>755.0</ele>
      </trkpt>
      <trkpt lat="44.005444" lon="3.498194">
        <time>1970-01-01T00:00:00+00:00</time>
        <ele>757.0</ele>
      </trkpt>
      <trkpt lat="44.005469" lon="3.498212">
        <time>1970-01-01T00:00:00+00:00</time>
        <ele>758.0</ele>
      </trkpt>
      <trkpt lat="44.005577" lon="3.498138">
        <time>1970-01-01T00:00:00+00:00</time>
        <ele>761.0</ele>
      </trkpt>
      <trkpt lat="44.005624" lon="3.498206">
        <time>1970-01-01T00:00:00+00:00</time>
        <ele>764.0</ele>
      </trkpt>
      <trkpt lat="44.005751" lon="3.498077">
        <time>1970-01-01T00:00:00+00:00</time>
        <ele>767.0</ele>
      </trkpt>
      <trkpt lat="44.005886" lon="3.498023">
        <time>1970-01-01T00:00:00+00:00</time>
        <ele>769.0</ele>
      </trkpt>
      <trkpt lat="44.005954" lon="3.498093">
        <time>1970-01-01T00:00:00+00:00</time>
        <ele>772.0</ele>
      </trkpt>
      <trkpt lat="44.005974" lon="3.498223">
        <time>1970-01-01T00:00:00+00:00</time>
        <ele>776.0</ele>
      </trkpt>
      <trkpt lat="44.005915" lon="3.498423">
        <time>1970-01-01T00:00:00+00:00</time>
        <ele>778.0</ele>
      </trkpt>
      <trkpt lat="44.005939" lon="3.498535">
        <time>1970-01-01T00:00:00+00:00</time>
        <ele>782.0</ele>
      </trkpt>
      <trkpt lat="44.005916" lon="3.49869">
        <time>1970-01-01T00:00:00+00:00</time>
        <ele>786.0</ele>
      </trkpt>
      <trkpt lat="44.005977" lon="3.498831">
        <time>1970-01-01T00:00:00+00:00</time>
        <ele>793.0</ele>
      </trkpt>
      <trkpt lat="44.006053" lon="3.498843">
        <time>1970-01-01T00:00:00+00:00</time>
        <ele>796.0</ele>
      </trkpt>
      <trkpt lat="44.00611" lon="3.498926">
        <time>1970-01-01T00:00:00+00:00</time>
        <ele>800.0</ele>
      </trkpt>
      <trkpt lat="44.006081" lon="3.499093">
        <time>1970-01-01T00:00:00+00:00</time>
        <ele>803.0</ele>
      </trkpt>
      <trkpt lat="44.006089" lon="3.499154">
        <time>1970-01-01T00:00:00+00:00</time>
        <ele>804.0</ele>
      </trkpt>
      <trkpt lat="44.006156" lon="3.49917">
        <time>1970-01-01T00:00:00+00:00</time>
        <ele>807.0</ele>
      </trkpt>
      <trkpt lat="44.006207" lon="3.499116">
        <time>1970-01-01T00:00:00+00:00</time>
        <ele>808.0</ele>
      </trkpt>
      <trkpt lat="44.006229" lon="3.499148">
        <time>1970-01-01T00:00:00+00:00</time>
        <ele>809.0</ele>
      </trkpt>
      <trkpt lat="44.006246" lon="3.499276">
        <time>1970-01-01T00:00:00+00:00</time>
        <ele>814.0</ele>
      </trkpt>
      <trkpt lat="44.006238" lon="3.49939">
        <time>1970-01-01T00:00:00+00:00</time>
        <ele>817.0</ele>
      </trkpt>
      <trkpt lat="44.006271" lon="3.499465">
        <time>1970-01-01T00:00:00+00:00</time>
        <ele>821.0</ele>
      </trkpt>
      <trkpt lat="44.006372" lon="3.499383">
        <time>1970-01-01T00:00:00+00:00</time>
        <ele>822.0</ele>
      </trkpt>
      <trkpt lat="44.006398" lon="3.499443">
        <time>1970-01-01T00:00:00+00:00</time>
        <ele>826.0</ele>
      </trkpt>
      <trkpt lat="44.006447" lon="3.499493">
        <time>1970-01-01T00:00:00+00:00</time>
        <ele>831.0</ele>
      </trkpt>
      <trkpt lat="44.006435" lon="3.499563">
        <time>1970-01-01T00:00:00+00:00</time>
        <ele>833.0</ele>
      </trkpt>
      <trkpt lat="44.006385" lon="3.499608">
        <time>1970-01-01T00:00:00+00:00</time>
        <ele>832.0</ele>
      </trkpt>
      <trkpt lat="44.006353" lon="3.49972">
        <time>1970-01-01T00:00:00+00:00</time>
        <ele>835.0</ele>
      </trkpt>
      <trkpt lat="44.006284" lon="3.499879">
        <time>1970-01-01T00:00:00+00:00</time>
        <ele>838.0</ele>
      </trkpt>
      <trkpt lat="44.006286" lon="3.499964">
        <time>1970-01-01T00:00:00+00:00</time>
        <ele>842.0</ele>
      </trkpt>
      <trkpt lat="44.006223" lon="3.500031">
        <time>1970-01-01T00:00:00+00:00</time>
        <ele>842.0</ele>
      </trkpt>
      <trkpt lat="44.006222" lon="3.500084">
        <time>1970-01-01T00:00:00+00:00</time>
        <ele>844.0</ele>
      </trkpt>
      <trkpt lat="44.006252" lon="3.500112">
        <time>1970-01-01T00:00:00+00:00</time>
        <ele>847.0</ele>
      </trkpt>
      <trkpt lat="44.006178" lon="3.500231">
        <time>1970-01-01T00:00:00+00:00</time>
        <ele>849.0</ele>
      </trkpt>
      <trkpt lat="44.006185" lon="3.500298">
        <time>1970-01-01T00:00:00+00:00</time>
        <ele>852.0</ele>
      </trkpt>
      <trkpt lat="44.006136" lon="3.500336">
        <time>1970-01-01T00:00:00+00:00</time>
        <ele>851.0</ele>
      </trkpt>
      <trkpt lat="44.006131" lon="3.500395">
        <time>1970-01-01T00:00:00+00:00</time>
        <ele>854.0</ele>
      </trkpt>
      <trkpt lat="44.006156" lon="3.500439">
        <time>1970-01-01T00:00:00+00:00</time>
        <ele>857.0</ele>
      </trkpt>
      <trkpt lat="44.006156" lon="3.500512">
        <time>1970-01-01T00:00:00+00:00</time>
        <ele>860.0</ele>
      </trkpt>
      <trkpt lat="44.005836" lon="3.500807">
        <time>1970-01-01T00:00:00+00:00</time>
        <ele>869.0</ele>
      </trkpt>
      <trkpt lat="44.005679" lon="3.500829">
        <time>1970-01-01T00:00:00+00:00</time>
        <ele>870.0</ele>
      </trkpt>
      <trkpt lat="44.005543" lon="3.500957">
        <time>1970-01-01T00:00:00+00:00</time>
        <ele>871.0</ele>
      </trkpt>
      <trkpt lat="44.005476" lon="3.50098">
        <time>1970-01-01T00:00:00+00:00</time>
        <ele>870.0</ele>
      </trkpt>
      <trkpt lat="44.005422" lon="3.500943">
        <time>1970-01-01T00:00:00+00:00</time>
        <ele>870.0</ele>
      </trkpt>
      <trkpt lat="44.005422" lon="3.500943">
        <time>1970-01-01T00:00:00+00:00</time>
        <ele>870.0</ele>
      </trkpt>
      <trkpt lat="44.005476" lon="3.50098">
        <time>1970-01-01T00:00:00+00:00</time>
        <ele>870.0</ele>
      </trkpt>
      <trkpt lat="44.005543" lon="3.500957">
        <time>1970-01-01T00:00:00+00:00</time>
        <ele>871.0</ele>
      </trkpt>
      <trkpt lat="44.005679" lon="3.500829">
        <time>1970-01-01T00:00:00+00:00</time>
        <ele>870.0</ele>
      </trkpt>
      <trkpt lat="44.005836" lon="3.500807">
        <time>1970-01-01T00:00:00+00:00</time>
        <ele>869.0</ele>
      </trkpt>
      <trkpt lat="44.006156" lon="3.500512">
        <time>1970-01-01T00:00:00+00:00</time>
        <ele>860.0</ele>
      </trkpt>
      <trkpt lat="44.006156" lon="3.500439">
        <time>1970-01-01T00:00:00+00:00</time>
        <ele>857.0</ele>
      </trkpt>
      <trkpt lat="44.006131" lon="3.500395">
        <time>1970-01-01T00:00:00+00:00</time>
        <ele>854.0</ele>
      </trkpt>
      <trkpt lat="44.006136" lon="3.500336">
        <time>1970-01-01T00:00:00+00:00</time>
        <ele>851.0</ele>
      </trkpt>
      <trkpt lat="44.006185" lon="3.500298">
        <time>1970-01-01T00:00:00+00:00</time>
        <ele>852.0</ele>
      </trkpt>
      <trkpt lat="44.006178" lon="3.500231">
        <time>1970-01-01T00:00:00+00:00</time>
        <ele>849.0</ele>
      </trkpt>
      <trkpt lat="44.006252" lon="3.500112">
        <time>1970-01-01T00:00:00+00:00</time>
        <ele>847.0</ele>
      </trkpt>
      <trkpt lat="44.006222" lon="3.500084">
        <time>1970-01-01T00:00:00+00:00</time>
        <ele>844.0</ele>
      </trkpt>
      <trkpt lat="44.006223" lon="3.500031">
        <time>1970-01-01T00:00:00+00:00</time>
        <ele>842.0</ele>
      </trkpt>
      <trkpt lat="44.006286" lon="3.499964">
        <time>1970-01-01T00:00:00+00:00</time>
        <ele>842.0</ele>
      </trkpt>
      <trkpt lat="44.006284" lon="3.499879">
        <time>1970-01-01T00:00:00+00:00</time>
        <ele>838.0</ele>
      </trkpt>
      <trkpt lat="44.006353" lon="3.49972">
        <time>1970-01-01T00:00:00+00:00</time>
        <ele>835.0</ele>
      </trkpt>
      <trkpt lat="44.006385" lon="3.499608">
        <time>1970-01-01T00:00:00+00:00</time>
        <ele>832.0</ele>
      </trkpt>
      <trkpt lat="44.006435" lon="3.499563">
        <time>1970-01-01T00:00:00+00:00</time>
        <ele>833.0</ele>
      </trkpt>
      <trkpt lat="44.006447" lon="3.499493">
        <time>1970-01-01T00:00:00+00:00</time>
        <ele>831.0</ele>
      </trkpt>
      <trkpt lat="44.006398" lon="3.499443">
        <time>1970-01-01T00:00:00+00:00</time>
        <ele>826.0</ele>
      </trkpt>
      <trkpt lat="44.006372" lon="3.499383">
        <time>1970-01-01T00:00:00+00:00</time>
        <ele>822.0</ele>
      </trkpt>
      <trkpt lat="44.006271" lon="3.499465">
        <time>1970-01-01T00:00:00+00:00</time>
        <ele>821.0</ele>
      </trkpt>
      <trkpt lat="44.006238" lon="3.49939">
        <time>1970-01-01T00:00:00+00:00</time>
        <ele>817.0</ele>
      </trkpt>
      <trkpt lat="44.006246" lon="3.499276">
        <time>1970-01-01T00:00:00+00:00</time>
        <ele>814.0</ele>
      </trkpt>
      <trkpt lat="44.006229" lon="3.499148">
        <time>1970-01-01T00:00:00+00:00</time>
        <ele>809.0</ele>
      </trkpt>
      <trkpt lat="44.006207" lon="3.499116">
        <time>1970-01-01T00:00:00+00:00</time>
        <ele>808.0</ele>
      </trkpt>
      <trkpt lat="44.006156" lon="3.49917">
        <time>1970-01-01T00:00:00+00:00</time>
        <ele>807.0</ele>
      </trkpt>
      <trkpt lat="44.006089" lon="3.499154">
        <time>1970-01-01T00:00:00+00:00</time>
        <ele>804.0</ele>
      </trkpt>
      <trkpt lat="44.006081" lon="3.499093">
        <time>1970-01-01T00:00:00+00:00</time>
        <ele>803.0</ele>
      </trkpt>
      <trkpt lat="44.00611" lon="3.498926">
        <time>1970-01-01T00:00:00+00:00</time>
        <ele>800.0</ele>
      </trkpt>
      <trkpt lat="44.006053" lon="3.498843">
        <time>1970-01-01T00:00:00+00:00</time>
        <ele>796.0</ele>
      </trkpt>
      <trkpt lat="44.005977" lon="3.498831">
        <time>1970-01-01T00:00:00+00:00</time>
        <ele>793.0</ele>
      </trkpt>
      <trkpt lat="44.005916" lon="3.49869">
        <time>1970-01-01T00:00:00+00:00</time>
        <ele>786.0</ele>
      </trkpt>
      <trkpt lat="44.005939" lon="3.498535">
        <time>1970-01-01T00:00:00+00:00</time>
        <ele>782.0</ele>
      </trkpt>
      <trkpt lat="44.005915" lon="3.498423">
        <time>1970-01-01T00:00:00+00:00</time>
        <ele>778.0</ele>
      </trkpt>
      <trkpt lat="44.005974" lon="3.498223">
        <time>1970-01-01T00:00:00+00:00</time>
        <ele>776.0</ele>
      </trkpt>
      <trkpt lat="44.005954" lon="3.498093">
        <time>1970-01-01T00:00:00+00:00</time>
        <ele>772.0</ele>
      </trkpt>
      <trkpt lat="44.005886" lon="3.498023">
        <time>1970-01-01T00:00:00+00:00</time>
        <ele>769.0</ele>
      </trkpt>
      <trkpt lat="44.005751" lon="3.498077">
        <time>1970-01-01T00:00:00+00:00</time>
        <ele>767.0</ele>
      </trkpt>
      <trkpt lat="44.005624" lon="3.498206">
        <time>1970-01-01T00:00:00+00:00</time>
        <ele>764.0</ele>
      </trkpt>
      <trkpt lat="44.005577" lon="3.498138">
        <time>1970-01-01T00:00:00+00:00</time>
        <ele>761.0</ele>
      </trkpt>
      <trkpt lat="44.005469" lon="3.498212">
        <time>1970-01-01T00:00:00+00:00</time>
        <ele>758.0</ele>
      </trkpt>
      <trkpt lat="44.005444" lon="3.498194">
        <time>1970-01-01T00:00:00+00:00</time>
        <ele>757.0</ele>
      </trkpt>
      <trkpt lat="44.005438" lon="3.498135">
        <time>1970-01-01T00:00:00+00:00</time>
        <ele>755.0</ele>
      </trkpt>
      <trkpt lat="44.00529" lon="3.49826">
        <time>1970-01-01T00:00:00+00:00</time>
        <ele>752.0</ele>
      </trkpt>
      <trkpt lat="44.004986" lon="3.498397">
        <time>1970-01-01T00:00:00+00:00</time>
        <ele>744.0</ele>
      </trkpt>
      <trkpt lat="44.004933" lon="3.498466">
        <time>1970-01-01T00:00:00+00:00</time>
        <ele>745.0</ele>
      </trkpt>
      <trkpt lat="44.004897" lon="3.498473">
        <time>1970-01-01T00:00:00+00:00</time>
        <ele>744.0</ele>
      </trkpt>
      <trkpt lat="44.004817" lon="3.498544">
        <time>1970-01-01T00:00:00+00:00</time>
        <ele>744.0</ele>
      </trkpt>
      <trkpt lat="44.004765" lon="3.498564">
        <time>1970-01-01T00:00:00+00:00</time>
        <ele>743.0</ele>
      </trkpt>
      <trkpt lat="44.004694" lon="3.49846">
        <time>1970-01-01T00:00:00+00:00</time>
        <ele>736.0</ele>
      </trkpt>
      <trkpt lat="44.004619" lon="3.498454">
        <time>1970-01-01T00:00:00+00:00</time>
        <ele>732.0</ele>
      </trkpt>
      <trkpt lat="44.00451" lon="3.498526">
        <time>1970-01-01T00:00:00+00:00</time>
        <ele>730.0</ele>
      </trkpt>
      <trkpt lat="44.004375" lon="3.498527">
        <time>1970-01-01T00:00:00+00:00</time>
        <ele>725.0</ele>
      </trkpt>
      <trkpt lat="44.004155" lon="3.498445">
        <time>1970-01-01T00:00:00+00:00</time>
        <ele>715.0</ele>
      </trkpt>
      <trkpt lat="44.003987" lon="3.498469">
        <time>1970-01-01T00:00:00+00:00</time>
        <ele>710.0</ele>
      </trkpt>
      <trkpt lat="44.003847" lon="3.49846">
        <time>1970-01-01T00:00:00+00:00</time>
        <ele>705.0</ele>
      </trkpt>
      <trkpt lat="44.003793" lon="3.498395">
        <time>1970-01-01T00:00:00+00:00</time>
        <ele>702.0</ele>
      </trkpt>
      <trkpt lat="44.003587" lon="3.498458">
        <time>1970-01-01T00:00:00+00:00</time>
        <ele>697.0</ele>
      </trkpt>
      <trkpt lat="44.003533" lon="3.498534">
        <time>1970-01-01T00:00:00+00:00</time>
        <ele>698.0</ele>
      </trkpt>
      <trkpt lat="44.003279" lon="3.498545">
        <time>1970-01-01T00:00:00+00:00</time>
        <ele>690.0</ele>
      </trkpt>
      <trkpt lat="44.002808" lon="3.498474">
        <time>1970-01-01T00:00:00+00:00</time>
        <ele>674.0</ele>
      </trkpt>
      <trkpt lat="44.002701" lon="3.49854">
        <time>1970-01-01T00:00:00+00:00</time>
        <ele>672.0</ele>
      </trkpt>
      <trkpt lat="44.002642" lon="3.498643">
        <time>1970-01-01T00:00:00+00:00</time>
        <ele>672.0</ele>
      </trkpt>
      <trkpt lat="44.002446" lon="3.498883">
        <time>1970-01-01T00:00:00+00:00</time>
        <ele>670.0</ele>
      </trkpt>
      <trkpt lat="44.002214" lon="3.498911">
        <time>1970-01-01T00:00:00+00:00</time>
        <ele>661.0</ele>
      </trkpt>
      <trkpt lat="44.001998" lon="3.498899">
        <time>1970-01-01T00:00:00+00:00</time>
        <ele>652.0</ele>
      </trkpt>
      <trkpt lat="44.001841" lon="3.498947">
        <time>1970-01-01T00:00:00+00:00</time>
        <ele>648.0</ele>
      </trkpt>
      <trkpt lat="44.001763" lon="3.498919">
        <time>1970-01-01T00:00:00+00:00</time>
        <ele>644.0</ele>
      </trkpt>
      <trkpt lat="44.001485" lon="3.498972">
        <time>1970-01-01T00:00:00+00:00</time>
        <ele>636.0</ele>
      </trkpt>
      <trkpt lat="44.001405" lon="3.498931">
        <time>1970-01-01T00:00:00+00:00</time>
        <ele>632.0</ele>
      </trkpt>
      <trkpt lat="44.00135" lon="3.498948">
        <time>1970-01-01T00:00:00+00:00</time>
        <ele>631.0</ele>
      </trkpt>
      <trkpt lat="44.001274" lon="3.499027">
        <time>1970-01-01T00:00:00+00:00</time>
        <ele>630.0</ele>
      </trkpt>
      <trkpt lat="44.001104" lon="3.499038">
        <time>1970-01-01T00:00:00+00:00</time>
        <ele>622.0</ele>
      </trkpt>
      <trkpt lat="44.001068" lon="3.498898">
        <time>1970-01-01T00:00:00+00:00</time>
        <ele>617.0</ele>
      </trkpt>
      <trkpt lat="44.000995" lon="3.498767">
        <time>1970-01-01T00:00:00+00:00</time>
        <ele>611.0</ele>
      </trkpt>
      <trkpt lat="44.000629" lon="3.49907">
        <time>1970-01-01T00:00:00+00:00</time>
        <ele>598.0</ele>
      </trkpt>
      <trkpt lat="44.000571" lon="3.499177">
        <time>1970-01-01T00:00:00+00:00</time>
        <ele>596.0</ele>
      </trkpt>
      <trkpt lat="44.000495" lon="3.499208">
        <time>1970-01-01T00:00:00+00:00</time>
        <ele>592.0</ele>
      </trkpt>
      <trkpt lat="44.000438" lon="3.499312">
        <time>1970-01-01T00:00:00+00:00</time>
        <ele>594.0</ele>
      </trkpt>
      <trkpt lat="44.000307" lon="3.499476">
        <time>1970-01-01T00:00:00+00:00</time>
        <ele>594.0</ele>
      </trkpt>
      <trkpt lat="44.000067" lon="3.499717">
        <time>1970-01-01T00:00:00+00:00</time>
        <ele>597.0</ele>
      </trkpt>
      <trkpt lat="43.999884" lon="3.499717">
        <time>1970-01-01T00:00:00+00:00</time>
        <ele>590.0</ele>
      </trkpt>
      <trkpt lat="43.999608" lon="3.49981">
        <time>1970-01-01T00:00:00+00:00</time>
        <ele>582.0</ele>
      </trkpt>
      <trkpt lat="43.999454" lon="3.499822">
        <time>1970-01-01T00:00:00+00:00</time>
        <ele>574.0</ele>
      </trkpt>
      <trkpt lat="43.999376" lon="3.499776">
        <time>1970-01-01T00:00:00+00:00</time>
        <ele>569.0</ele>
      </trkpt>
      <trkpt lat="43.999233" lon="3.499864">
        <time>1970-01-01T00:00:00+00:00</time>
        <ele>562.0</ele>
      </trkpt>
      <trkpt lat="43.999223" lon="3.499915">
        <time>1970-01-01T00:00:00+00:00</time>
        <ele>562.0</ele>
      </trkpt>
      <trkpt lat="43.999193" lon="3.499964">
        <time>1970-01-01T00:00:00+00:00</time>
        <ele>560.0</ele>
      </trkpt>
      <trkpt lat="43.999136" lon="3.499949">
        <time>1970-01-01T00:00:00+00:00</time>
        <ele>557.0</ele>
      </trkpt>
      <trkpt lat="43.998966" lon="3.499985">
        <time>1970-01-01T00:00:00+00:00</time>
        <ele>549.0</ele>
      </trkpt>
      <trkpt lat="43.998918" lon="3.500101">
        <time>1970-01-01T00:00:00+00:00</time>
        <ele>547.0</ele>
      </trkpt>
      <trkpt lat="43.998912" lon="3.500372">
        <time>1970-01-01T00:00:00+00:00</time>
        <ele>552.0</ele>
      </trkpt>
      <trkpt lat="43.998872" lon="3.50045">
        <time>1970-01-01T00:00:00+00:00</time>
        <ele>553.0</ele>
      </trkpt>
      <trkpt lat="43.998776" lon="3.500455">
        <time>1970-01-01T00:00:00+00:00</time>
        <ele>550.0</ele>
      </trkpt>
      <trkpt lat="43.998612" lon="3.500575">
        <time>1970-01-01T00:00:00+00:00</time>
        <ele>545.0</ele>
      </trkpt>
      <trkpt lat="43.998524" lon="3.500699">
        <time>1970-01-01T00:00:00+00:00</time>
        <ele>543.0</ele>
      </trkpt>
      <trkpt lat="43.998486" lon="3.500693">
        <time>1970-01-01T00:00:00+00:00</time>
        <ele>540.0</ele>
      </trkpt>
      <trkpt lat="43.998436" lon="3.50054">
        <time>1970-01-01T00:00:00+00:00</time>
        <ele>535.0</ele>
      </trkpt>
      <trkpt lat="43.998388" lon="3.500485">
        <time>1970-01-01T00:00:00+00:00</time>
        <ele>533.0</ele>
      </trkpt>
      <trkpt lat="43.998228" lon="3.500923">
        <time>1970-01-01T00:00:00+00:00</time>
        <ele>530.0</ele>
      </trkpt>
      <trkpt lat="43.997907" lon="3.5012">
        <time>1970-01-01T00:00:00+00:00</time>
        <ele>527.0</ele>
      </trkpt>
      <trkpt lat="43.997687" lon="3.501315">
        <time>1970-01-01T00:00:00+00:00</time>
        <ele>524.0</ele>
      </trkpt>
      <trkpt lat="43.997478" lon="3.501357">
        <time>1970-01-01T00:00:00+00:00</time>
        <ele>522.0</ele>
      </trkpt>
      <trkpt lat="43.997355" lon="3.501361">
        <time>1970-01-01T00:00:00+00:00</time>
        <ele>519.0</ele>
      </trkpt>
      <trkpt lat="43.997147" lon="3.501458">
        <time>1970-01-01T00:00:00+00:00</time>
        <ele>516.0</ele>
      </trkpt>
      <trkpt lat="43.996989" lon="3.501494">
        <time>1970-01-01T00:00:00+00:00</time>
        <ele>514.0</ele>
      </trkpt>
      <trkpt lat="43.996916" lon="3.501454">
        <time>1970-01-01T00:00:00+00:00</time>
        <ele>513.0</ele>
      </trkpt>
      <trkpt lat="43.996857" lon="3.501456">
        <time>1970-01-01T00:00:00+00:00</time>
        <ele>512.0</ele>
      </trkpt>
      <trkpt lat="43.996776" lon="3.501509">
        <time>1970-01-01T00:00:00+00:00</time>
        <ele>512.0</ele>
      </trkpt>
      <trkpt lat="43.996567" lon="3.501448">
        <time>1970-01-01T00:00:00+00:00</time>
        <ele>507.0</ele>
      </trkpt>
      <trkpt lat="43.996241" lon="3.50121">
        <time>1970-01-01T00:00:00+00:00</time>
        <ele>501.0</ele>
      </trkpt>
      <trkpt lat="43.996" lon="3.501105">
        <time>1970-01-01T00:00:00+00:00</time>
        <ele>497.0</ele>
      </trkpt>
      <trkpt lat="43.995987" lon="3.501071">
        <time>1970-01-01T00:00:00+00:00</time>
        <ele>497.0</ele>
      </trkpt>
      <trkpt lat="43.996023" lon="3.501061">
        <time>1970-01-01T00:00:00+00:00</time>
        <ele>497.0</ele>
      </trkpt>
      <trkpt lat="43.996111" lon="3.501082">
        <time>1970-01-01T00:00:00+00:00</time>
        <ele>498.0</ele>
      </trkpt>
      <trkpt lat="43.996159" lon="3.501036">
        <time>1970-01-01T00:00:00+00:00</time>
        <ele>499.0</ele>
      </trkpt>
      <trkpt lat="43.995823" lon="3.500984">
        <time>1970-01-01T00:00:00+00:00</time>
        <ele>494.0</ele>
      </trkpt>
      <trkpt lat="43.995667" lon="3.500995">
        <time>1970-01-01T00:00:00+00:00</time>
        <ele>491.0</ele>
      </trkpt>
      <trkpt lat="43.995455" lon="3.501041">
        <time>1970-01-01T00:00:00+00:00</time>
        <ele>490.0</ele>
      </trkpt>
      <trkpt lat="43.995265" lon="3.501026">
        <time>1970-01-01T00:00:00+00:00</time>
        <ele>488.0</ele>
      </trkpt>
      <trkpt lat="43.994969" lon="3.500963">
        <time>1970-01-01T00:00:00+00:00</time>
        <ele>481.0</ele>
      </trkpt>
      <trkpt lat="43.994836" lon="3.501115">
        <time>1970-01-01T00:00:00+00:00</time>
        <ele>481.0</ele>
      </trkpt>
      <trkpt lat="43.994641" lon="3.501296">
        <time>1970-01-01T00:00:00+00:00</time>
        <ele>481.0</ele>
      </trkpt>
      <trkpt lat="43.994293" lon="3.50148">
        <time>1970-01-01T00:00:00+00:00</time>
        <ele>477.0</ele>
      </trkpt>
      <trkpt lat="43.993997" lon="3.501535">
        <time>1970-01-01T00:00:00+00:00</time>
        <ele>475.0</ele>
      </trkpt>
      <trkpt lat="43.993921" lon="3.501569">
        <time>1970-01-01T00:00:00+00:00</time>
        <ele>474.0</ele>
      </trkpt>
      <trkpt lat="43.99393" lon="3.501977">
        <time>1970-01-01T00:00:00+00:00</time>
        <ele>476.0</ele>
      </trkpt>
      <trkpt lat="43.9939" lon="3.502146">
        <time>1970-01-01T00:00:00+00:00</time>
        <ele>475.0</ele>
      </trkpt>
      <trkpt lat="43.993861" lon="3.502068">
        <time>1970-01-01T00:00:00+00:00</time>
        <ele>475.0</ele>
      </trkpt>
      <trkpt lat="43.993809" lon="3.502036">
        <time>1970-01-01T00:00:00+00:00</time>
        <ele>475.0</ele>
      </trkpt>
      <trkpt lat="43.993746" lon="3.502036">
        <time>1970-01-01T00:00:00+00:00</time>
        <ele>474.0</ele>
      </trkpt>
      <trkpt lat="43.993649" lon="3.502156">
        <time>1970-01-01T00:00:00+00:00</time>
        <ele>473.0</ele>
      </trkpt>
      <trkpt lat="43.993562" lon="3.50231">
        <time>1970-01-01T00:00:00+00:00</time>
        <ele>470.0</ele>
      </trkpt>
      <trkpt lat="43.993265" lon="3.502382">
        <time>1970-01-01T00:00:00+00:00</time>
        <ele>469.0</ele>
      </trkpt>
      <trkpt lat="43.993092" lon="3.502464">
        <time>1970-01-01T00:00:00+00:00</time>
        <ele>467.0</ele>
      </trkpt>
      <trkpt lat="43.99306" lon="3.502437">
        <time>1970-01-01T00:00:00+00:00</time>
        <ele>467.0</ele>
      </trkpt>
      <trkpt lat="43.992995" lon="3.502436">
        <time>1970-01-01T00:00:00+00:00</time>
        <ele>466.0</ele>
      </trkpt>
      <trkpt lat="43.992873" lon="3.502529">
        <time>1970-01-01T00:00:00+00:00</time>
        <ele>465.0</ele>
      </trkpt>
      <trkpt lat="43.992827" lon="3.502614">
        <time>1970-01-01T00:00:00+00:00</time>
        <ele>464.0</ele>
      </trkpt>
      <trkpt lat="43.992737" lon="3.502684">
        <time>1970-01-01T00:00:00+00:00</time>
        <ele>463.0</ele>
      </trkpt>
      <trkpt lat="43.992689" lon="3.50278">
        <time>1970-01-01T00:00:00+00:00</time>
        <ele>463.0</ele>
      </trkpt>
      <trkpt lat="43.992715" lon="3.502869">
        <time>1970-01-01T00:00:00+00:00</time>
        <ele>464.0</ele>
      </trkpt>
      <trkpt lat="43.992554" lon="3.502928">
        <time>1970-01-01T00:00:00+00:00</time>
        <ele>462.0</ele>
      </trkpt>
      <trkpt lat="43.992446" lon="3.503115">
        <time>1970-01-01T00:00:00+00:00</time>
        <ele>463.0</ele>
      </trkpt>
      <trkpt lat="43.992174" lon="3.503406">
        <time>1970-01-01T00:00:00+00:00</time>
        <ele>463.0</ele>
      </trkpt>
      <trkpt lat="43.991686" lon="3.503669">
        <time>1970-01-01T00:00:00+00:00</time>
        <ele>460.0</ele>
      </trkpt>
      <trkpt lat="43.991611" lon="3.503663">
        <time>1970-01-01T00:00:00+00:00</time>
        <ele>459.0</ele>
      </trkpt>
      <trkpt lat="43.991536" lon="3.503629">
        <time>1970-01-01T00:00:00+00:00</time>
        <ele>458.0</ele>
      </trkpt>
      <trkpt lat="43.991308" lon="3.503594">
        <time>1970-01-01T00:00:00+00:00</time>
        <ele>455.0</ele>
      </trkpt>
      <trkpt lat="43.991177" lon="3.503606">
        <time>1970-01-01T00:00:00+00:00</time>
        <ele>454.0</ele>
      </trkpt>
      <trkpt lat="43.991156" lon="3.503638">
        <time>1970-01-01T00:00:00+00:00</time>
        <ele>454.0</ele>
      </trkpt>
      <trkpt lat="43.991152" lon="3.503767">
        <time>1970-01-01T00:00:00+00:00</time>
        <ele>455.0</ele>
      </trkpt>
      <trkpt lat="43.991049" lon="3.503932">
        <time>1970-01-01T00:00:00+00:00</time>
        <ele>455.0</ele>
      </trkpt>
      <trkpt lat="43.990935" lon="3.504028">
        <time>1970-01-01T00:00:00+00:00</time>
        <ele>455.0</ele>
      </trkpt>
      <trkpt lat="43.990814" lon="3.50413">
        <time>1970-01-01T00:00:00+00:00</time>
        <ele>456.0</ele>
      </trkpt>
      <trkpt lat="43.990774" lon="3.504144">
        <time>1970-01-01T00:00:00+00:00</time>
        <ele>456.0</ele>
      </trkpt>
    </trkseg>
  </trk>
</gpx>
